Location: Quaker Farms
(41.4276°N, 73.1557°W)
Time: 00:00:00
(UTC+00:00)

Vanguard 1 - Pass Details

Date: 14 June 2021
Orbit: 651 x 3832 km, 34.2° (Epoch: 26 July)

Event Time Altitude Azimuth Distance (km) Brightness Sun altitude
Rises 02:24:10 0° 224° (SW) 7,964 14.6 -16.7°
Reaches altitude 10° 02:30:10 10° 218° (SW) 6,882 14.2 -17.3°
Maximum altitude 02:50:11 45° 156° (SSE) 3,773 12.5 -19.3°
Drops below altitude 10° 03:03:12 10° 90° (E) 4,637 13.2 -20.5°
Sets 03:06:18 0° 83° (E) 5,278 13.6 -20.7°
